SCP
0 0 0 0 0 0 -0 0 0 0 0 0 0 0 0 0 0 -0 0 -0 -0 -0 -0 -0 -0 -0 -0 0 0 -0 -0 0 0 0 -0 -0 0 0 0 0 0 0 0 0 0 0 0 -0 0 0 0 0 0 0
-0 0 0 0 0 0 0 0 0 0 0 0 0 0 0 0 0 -0 0 -0 -0 -0 -0 -0 -0 -0 -0 -0 -0 -0 -0 0 0 0 0 0 0 0 0 0 0 0 0 0 0 0 0 0 0 0 0 0 0 0
0 0 0 0 0 0 0 0 0 0 0 0 0 0 0 0 0 -0 0 -0 -0 -0 0 0 0 0 -0 0 0 0 -0 0 0 -0 0 0 0 -0 0 -0 0 0 0 0 0 0 0 0 0 0 0 0 0 0
0 0 0 0 0 0 0 0 0 0 0 0 0 0 0 0 0 -0 -0 0 -0 0 0 0 0 0 0 -0 0 -0 -0 0 0 0 0 0 0 -0 0 0 0 0 0 0 0 0 0 0 0 0 0 0 0 0
0 0 0 0 0 0 0 0 0 0 0 0 0 0 0 0 0 -0 -0 -0 -0 -0 0 0 0 -0 0 0 0 -0 0 0 0 0 0 0 0 0 0 0 0 0 0 0 0 0 0 0 0 0 0 0 0 0
-0 -0 0 0 0 0 0 0 0 0 0 0 0 0 0 0 -0 0 0 0 0 0 0 0 0 0 0 0 0 0 0 0 0 -0 0 0 0 0 0 0 0 0 0 0 0 0 0 0 0 0 0 0 0 0
-0 0 0 0 0 0 0 0 0 0 0 0 0 0 0 0 -0 0 0 0 0 0 0 0 0 0 0 0 0 0 0 0 -0 0 0 0 0 -0 0 0 -0 0 0 0 -0 0 0 0 0 0 0 0 0 0
0 0 0 0 0 0 0 0 0 0 0 0 0 0 0 0 0 -0 -0 0 0 0 0 0 0 0 0 0 0 0 0 -0 0 0 0 0 0 -0 0 0 0 0 -0 0 0 0 0 0 0 0 0 0 0 0
0 0 0 0 0 0 0 0 0 0 0 0 0 0 0 0 0 -0 0 0 0 0 0 0 0 0 0 0 0 -0 0 0 0 0 0 0 -0 0 0 0 0 -0 0 0 0 0 0 0 0 0 0 0 0 0
0 0 0 0 0 0 0 0 0 0 0 0 0 0 0 0 -0 0 0 0 0 0 0 0 -0 0 -0 -0 0 0 0 0 0 0 0 0 0 0 0 0 0 0 0 0 -0 0 0 0 0 0 0 0 0 0
0 0 0 0 0 0 0 0 0 0 0 0 0 0 0 -0 0 0 0 0 0 0 0 -0 0 -0 -0 -0 0 0 0 0 0 -0 -0 -0 -0 0 -0 0 0 0 0 0 0 0 0 0 0 0 0 0 0 0
0 0 0 0 0 0 0 0 0 0 0 0 0 0 0 0 0 0 0 0 0 -0 -0 -0 -0 0 -0 0 0 0 0 0 0 0 -0 -0 0 -0 -0 0 0 0 0 0 0 0 0 0 0 0 0 0 0 0
0 0 0 0 0 0 0 0 0 0 0 0 0 0 0 0 0 0 0 0 0 -0 0 0 0 0 0 0 0 0 -0 -0 -0 -0 0 0 -0 -0 -0 0 -0 0 0 0 0 0 0 0 0 0 0 0 0 0
0 0 0 0 0 0 0 0 0 0 0 0 0 0 0 0 0 0 0 0 0 0 0 -0 0 0 -0 -0 0 0 -0 0 0 0 0 0 0 0 0 0 0 0 0 0 0 0 0 0 0 0 0 0 0 0
0 0 0 0 0 0 0 0 0 0 0 0 0 0 0 0 0 0 0 0 0 0 0 0 0 0 0 0 -0 0 -0 -0 0 0 0 0 0 0 0 0 0 0 0 0 0 0 0 0 0 0 0 0 0 0
0 0 0 0 0 0 0 0 0 0 0 0 0 0 0 0 0 0 0 0 0 0 0 0 0 0 -0 -0 -0 -0 -0 -0 -0 0 0 -0 -0 0 0 0 0 0 0 0 0 0 0 0 0 0 0 0 0 0
0 0 0 0 0 0 0 0 0 0 0 0 0 0 0 0 0 0 0 0 0 0 0 0 0 -0 -0 -0 -0 -0 -0 0 -0 -0 -0 -0 -0 -0 -0 -0 0 0 0 0 0 0 0 0 0 0 0 0 0 0
0 0 0 0 0 0 0 0 0 0 0 0 0 0 0 0 0 0 0 0 0 0 0 0 0 -0 -0 -0 -0 0 -0 -0 -0 -0 -0 -0 -0 -0 -0 -0 0 0 0 0 0 0 0 0 0 0 0 0 0 0
0 0 0 0 0 0 0 0 0 0 0 0 0 0 0 0 0 0 0 0 0 0 0 0 0 0 0 0 -0 -0 -0 -0 -0 -0 -0 -0 -0 -0 -0 0 0 0 0 0 0 0 0 0 0 0 0 0 0 0
0 0 0 0 0 0 0 0 0 0 0 0 0 0 0 0 0 0 0 0 0 0 0 0 0 0 0 0 0 -0 -0 -0 -0 -0 -0 -0 -0 0 0 0 0 0 0 0 0 0 0 0 0 0 0 0 0 0
0 0 0 0 0 0 0 0 0 0 0 0 0 0 0 0 0 0 0 0 0 0 0 0 0 0 0 0 0 -0 -0 -0 -0 -0 -0 -0 0 0 0 0 0 0 0 0 0 0 0 0 0 0 0 0 0 0
0 0 0 0 0 0 0 0 0 0 0 0 0 0 0 0 0 0 0 0 0 0 0 0 0 0 0 -0 -0 -0 -0 -0 -0 -0 -0 0 0 0 0 0 0 0 0 0 0 0 0 0 0 0 0 0 0 0
0 0 0 0 0 0 0 0 0 0 0 0 0 0 0 0 0 0 0 0 0 0 0 0 0 0 -0 -0 -0 -0 -0 -0 -0 0 0 0 0 0 0 0 0 0 0 0 0 0 0 0 0 0 0 0 0 0
0 0 0 0 0 0 0 0 0 0 0 0 0 0 0 0 0 0 0 0 0 0 0 0 0 -0 -0 -0 0 -0 0 0 0 0 0 0 0 0 0 0 0 0 0 0 0 0 0 0 0 0 0 0 0 0
0 0 0 0 0 0 0 0 0 0 0 0 0 -0 -0 0 0 0 0 0 0 0 0 0 0 0 0 0 0 0 0 0 0 0 0 0 0 0 0 0 0 0 0 0 0 0 0 0 0 0 0 0 0 0
0 0 0 0 0 0 0 0 0 0 0 0 -0 0 0 0 0 0 0 0 0 0 0 0 0 0 0 0 0 0 0 0 0 0 0 0 0 0 0 0 0 0 0 0 0 0 0 0 0 0 0 0 0 0
0 0 0 0 0 0 0 0 0 0 -0 -0 -0 0 0 0 -0 0 0 0 0 0 0 0 0 0 0 0 0 0 0 0 0 0 0 0 0 0 0 0 0 0 0 0 0 0 0 0 0 0 0 0 0 0
0 0 0 0 0 0 0 0 -0 -0 0 0 0 0 0 0 0 0 0 0 0 0 0 0 0 0 0 0 0 0 0 0 0 0 0 0 0 0 0 0 0 0 0 0 0 0 0 0 0 0 0 0 0 0
0 0 0 0 0 0 0 0 0 0 0 0 0 0 0 0 0 0 0 0 0 0 0 0 0 0 0 0 0 0 0 0 0 0 0 0 0 0 0 0 0 0 0 0 0 0 0 0 0 0 0 0 0 0
0 0 0 0 0 0 0 0 0 0 0 0 0 0 0 0 0 0 0 0 0 0 0 0 0 0 0 0 0 0 0 0 0 0 0 0 0 0 0 0 0 0 0 0 0 0 0 0 0 0 0 0 0 0
0 0 0 0 0 0 0 0 0 0 0 0 0 0 0 0 0 0 0 0 0 0 0 0 0 0 0 0 0 0 0 0 0 0 0 0 0 0 0 0 0 0 0 0 0 0 0 0 0 0 0 0 0 0
0 0 0 0 0 0 0 0 0 0 0 0 0 0 0 0 0 0 0 0 0 0 0 0 0 0 0 0 0 0 0 0 0 0 0 0 0 0 0 0 0 0 0 0 0 0 0 0 0 0 0 0 0 0
0 0 0 0 -0 -0 0 0 0 0 0 0 0 0 0 0 0 0 0 0 0 0 0 0 0 0 0 0 0 0 0 0 0 0 0 0 0 0 0 0 0 0 0 0 0 0 0 0 0 0 0 0 0 0
Wind_Speed_500mb
37 37 47 38 30 24 32 33 36 40 41 34 29 25 23 22 19 16 6 11 5 6 8 8 10 10 8 9 9 18 14 8 10 9 8 8 7 5 8 7 14 13 8 8 9 5 5 46 10 11 14 10 20 22
42 43 42 41 35 27 26 40 35 45 37 32 27 27 23 21 20 20 7 11 12 10 11 9 15 21 21 20 20 13 12 10 7 8 10 8 10 10 17 5 8 5 9 6 13 9 23 31 24 20 19 20 21 19
44 46 46 47 40 32 32 43 43 40 30 29 31 28 24 23 21 21 7 16 10 11 21 18 12 9 18 21 22 17 13 3 8 7 12 7 10 13 12 8 8 5 29 7 6 14 20 25 22 23 22 23 21 22
36 42 47 47 42 34 38 38 53 49 35 32 33 28 25 26 25 23 21 16 13 7 7 1 10 11 11 17 22 32 32 25 27 24 16 8 10 16 10 14 9 12 16 15 9 9 11 24 22 18 21 25 28 27
39 43 51 56 44 32 36 44 49 43 38 31 26 23 24 27 26 26 27 26 21 16 9 13 11 21 12 12 14 20 24 22 23 9 6 9 13 12 10 8 10 15 8 9 7 15 12 15 17 15 22 25 24 26
38 37 47 67 53 36 38 45 40 35 39 32 26 25 24 27 27 22 13 32 39 30 9 6 6 15 20 16 19 22 17 13 8 7 10 12 20 11 9 4 11 16 15 14 5 16 24 19 21 18 22 23 23 26
40 41 41 55 44 43 39 48 38 31 30 32 26 24 24 30 33 31 7 5 3 43 7 8 9 11 21 17 17 15 15 11 16 10 15 19 23 8 6 5 12 17 16 8 13 12 16 15 11 17 19 21 23 24
45 47 43 48 54 47 39 46 44 33 32 28 24 24 27 26 32 38 50 36 30 30 11 6 6 7 16 18 15 13 13 16 14 13 11 13 17 8 2 10 8 9 12 16 15 13 19 16 14 14 13 13 16 17
46 54 49 49 51 47 44 44 39 32 26 22 25 23 26 29 22 26 32 28 37 20 8 9 7 3 11 13 8 14 13 7 11 7 7 8 5 4 7 12 10 8 5 7 11 14 12 11 10 11 10 11 13 15
48 52 51 49 46 48 52 49 39 32 25 28 31 17 13 17 25 19 12 16 13 13 10 8 18 4 12 14 10 6 11 6 6 10 7 5 1 15 10 11 8 8 6 3 2 2 5 5 6 8 10 12 13 14
49 56 58 47 42 44 52 46 41 33 34 36 19 7 20 30 13 13 9 13 15 7 15 17 24 11 15 9 9 13 5 5 5 8 7 7 7 10 12 10 8 9 9 9 6 7 7 7 6 7 11 15 16 16
53 54 54 51 45 49 46 46 41 45 28 27 20 36 28 8 6 7 9 6 10 8 13 17 18 24 10 11 9 8 6 6 9 12 6 5 7 19 15 11 8 8 8 10 11 10 12 12 10 12 13 14 16 17
51 47 50 50 50 51 48 43 34 41 30 41 12 10 10 9 10 9 14 8 7 11 12 15 9 14 8 12 7 5 7 9 10 6 2 7 18 15 14 12 10 9 10 11 13 14 14 16 16 16 17 17 16 17
51 48 49 43 48 45 41 42 40 41 25 7 11 12 9 10 10 8 7 5 8 9 20 26 14 10 7 8 4 9 5 5 6 6 6 9 19 17 12 10 10 12 14 16 17 18 19 20 21 20 19 18 15 14
51 54 47 45 42 40 40 47 40 51 12 11 10 9 13 3 5 5 6 8 8 11 19 11 7 9 7 6 5 6 7 6 3 7 6 24 23 16 12 13 15 17 18 20 20 22 24 23 21 20 18 15 12 9
59 49 44 45 45 43 39 52 40 12 5 5 3 4 3 8 8 10 12 7 7 7 10 5 4 6 7 4 6 7 6 3 6 8 22 23 21 18 19 19 21 22 22 21 22 21 21 19 16 14 12 9 8 7
55 33 50 49 48 44 47 59 15 6 6 4 3 2 5 6 7 9 11 10 6 6 4 6 6 2 5 4 4 2 4 7 17 22 20 21 21 23 25 26 25 24 23 22 20 17 15 14 13 10 6 4 3 1
42 36 54 57 55 44 42 15 6 6 5 5 5 8 3 6 7 8 8 5 4 3 3 2 1 6 5 4 5 7 12 18 21 20 20 22 24 26 25 26 25 23 21 19 16 15 12 10 5 1 3 3 2 3
42 46 64 63 54 33 11 7 3 5 4 5 10 8 4 6 6 7 6 10 4 4 4 4 4 3 3 6 10 19 26 25 26 23 23 24 25 26 27 25 24 21 18 16 13 7 5 7 4 3 5 7 9 10
50 52 63 59 42 8 9 5 7 6 6 9 9 10 6 6 7 5 5 5 6 4 5 3 4 5 4 8 13 24 24 27 29 31 27 24 24 27 25 23 18 18 15 11 8 7 2 1 2 3 6 9 9 12
75 88 82 59 18 8 8 9 7 6 11 7 12 11 5 8 6 6 6 3 6 3 4 3 8 10 15 19 23 24 27 25 23 24 30 32 28 24 22 18 17 13 10 9 8 4 4 4 6 6 5 6 7 7
82 71 30 19 8 7 9 7 11 14 7 11 14 9 6 6 7 7 4 6 3 4 4 9 14 20 24 23 25 24 28 26 25 30 29 32 27 23 19 16 13 10 8 6 5 6 6 6 6 6 5 9 8 8
46 36 13 7 10 7 8 8 6 7 5 13 11 7 5 6 5 5 6 5 4 6 12 19 22 22 26 26 27 27 26 28 28 28 28 23 21 19 16 13 11 9 6 6 5 5 7 11 10 7 8 9 9 11
36 10 6 6 8 8 9 6 7 8 8 7 7 6 6 7 8 8 6 8 11 17 20 26 27 30 27 26 25 25 25 23 26 26 21 20 17 14 12 9 8 7 7 7 5 5 6 7 14 9 12 11 13 14
7 4 4 6 6 9 8 10 8 7 7 7 8 5 7 10 7 6 5 12 21 24 28 28 26 24 28 28 26 23 27 22 22 22 19 16 16 14 10 9 7 6 6 3 5 7 10 13 12 12 13 15 16 17
5 3 1 6 8 7 9 8 11 9 6 8 7 7 9 6 6 6 4 13 22 28 30 30 30 27 26 25 27 26 23 22 21 19 16 14 11 10 9 9 5 7 11 12 8 10 12 15 14 15 13 15 22 23
8 6 4 5 4 8 7 4 9 6 10 9 8 11 9 7 8 7 6 10 17 24 27 30 26 26 30 31 34 29 29 28 24 20 17 16 13 13 9 7 6 19 18 15 16 14 11 11 11 11 11 11 12 16
5 8 9 12 7 4 5 6 9 9 6 5 10 9 6 3 4 7 6 20 25 34 39 35 27 31 30 28 29 29 27 22 15 12 10 9 10 10 11 11 11 12 15 15 15 13 13 12 12 12 12 14 17 18
5 8 11 6 5 4 4 3 5 4 3 6 5 5 5 3 5 8 11 23 28 28 33 35 34 32 32 32 30 27 22 18 14 14 10 7 3 7 8 8 10 11 12 12 11 11 13 15 16 17 18 19 20 23
7 10 6 5 6 6 5 3 6 5 5 6 7 7 7 6 3 14 17 26 24 24 27 30 32 31 32 30 28 25 20 18 18 12 8 7 9 7 7 7 8 7 7 8 10 14 14 16 18 17 18 20 17 19
10 9 7 5 4 4 6 9 9 10 7 5 6 4 10 9 8 23 27 28 32 32 32 31 30 29 29 26 23 21 19 16 13 10 9 7 6 5 4 4 5 6 8 9 11 13 16 18 17 19 21 23 26 28
7 7 8 6 7 10 11 10 9 8 8 10 7 9 10 11 10 10 28 28 28 28 29 29 30 28 30 25 22 19 15 13 13 10 7 5 3 2 1 2 4 6 9 12 14 16 17 19 20 22 25 26 30 33
8 8 8 10 11 12 11 9 9 7 9 11 10 16 11 7 8 12 30 38 31 28 33 33 29 25 24 22 18 15 14 14 12 9 7 6 4 2 1 2 6 9 11 13 15 17 19 21 24 27 30 32 35 39
Wind_Direction_500mb
206 201 187 187 196 204 200 192 197 200 198 198 193 204 209 207 194 181 189 194 191 242 269 246 253 252 242 246 295 330 315 19 303 291 310 5 261 313 281 75 166 197 220 219 238 262 143 355 48 8 342 15 22 31
207 209 207 198 198 193 197 196 198 195 201 193 200 196 185 193 187 177 212 193 213 251 287 282 258 258 257 266 297 303 304 306 324 315 354 311 285 343 323 152 29 74 12 311 35 48 47 34 50 24 21 46 44 69
213 208 202 197 198 201 197 196 197 202 198 200 196 198 199 206 201 197 215 185 198 284 298 255 259 265 253 251 236 259 244 20 350 325 324 298 297 344 347 8 34 68 17 32 307 42 52 41 41 44 49 65 70 84
206 202 205 203 196 200 206 205 198 204 193 200 201 202 213 214 217 212 219 216 215 277 284 305 267 275 262 237 234 231 257 296 301 294 308 282 294 336 335 321 9 351 336 337 107 107 97 61 47 57 71 78 82 85
208 217 215 193 191 191 190 190 192 189 189 193 195 207 208 204 206 221 229 224 222 252 320 305 291 286 246 247 232 234 244 265 285 300 269 277 301 335 317 282 47 6 3 349 22 0 71 53 53 67 76 74 78 84
212 220 208 188 184 179 185 191 192 196 196 198 204 205 207 207 207 221 242 249 235 219 258 272 295 256 248 234 230 229 235 243 242 245 257 268 282 313 309 358 52 30 21 2 41 76 109 104 81 69 75 75 84 87
206 206 192 180 181 189 189 196 199 196 199 200 202 208 214 199 205 206 220 129 173 210 220 258 254 208 223 226 228 209 203 215 234 252 248 260 283 270 277 0 59 45 36 66 117 69 98 29 97 78 77 80 82 81
197 192 188 192 188 186 189 191 193 198 199 200 208 200 197 213 226 234 235 248 268 204 193 247 254 241 194 206 213 194 184 211 228 247 260 266 283 253 262 112 84 61 49 51 57 76 94 99 79 67 69 82 84 82
192 187 183 182 188 194 195 189 189 192 198 192 176 188 212 222 229 252 259 249 240 181 217 218 238 219 168 221 180 192 205 234 240 232 238 264 237 238 76 118 87 46 61 77 66 75 76 73 65 59 64 72 88 89
186 184 181 189 201 203 200 188 186 188 183 182 191 206 199 192 199 185 125 161 185 212 235 248 240 225 184 183 182 215 203 242 234 210 178 231 155 104 109 102 93 58 61 93 217 67 46 51 49 50 61 73 94 102
183 178 182 182 174 169 171 177 179 175 178 193 188 158 142 135 138 170 165 191 191 223 213 226 214 194 202 189 204 210 209 243 258 168 207 210 158 126 143 119 90 70 60 54 58 51 44 84 109 104 89 90 101 114
178 179 182 182 182 180 177 176 178 184 185 181 159 135 144 177 185 182 190 199 227 231 165 195 204 212 185 217 235 197 232 202 246 147 211 202 102 131 136 128 99 72 66 68 70 77 81 91 100 108 104 104 107 106
180 181 179 176 180 176 176 182 187 183 141 131 127 151 175 162 209 218 184 205 204 171 179 160 166 187 202 217 243 256 219 238 136 215 161 53 129 141 139 133 112 98 95 93 91 98 103 107 124 112 106 104 107 111
181 177 174 180 179 178 182 187 191 190 166 180 160 149 220 177 230 199 253 147 78 117 162 173 164 186 162 179 239 248 197 262 232 229 106 129 146 137 124 120 130 110 107 107 105 108 109 112 114 113 110 109 109 108
172 169 173 177 178 180 184 184 171 180 165 205 194 209 203 96 46 81 108 119 118 168 164 173 177 189 173 221 212 280 222 226 320 54 87 125 131 140 131 126 126 123 116 109 109 111 110 111 111 111 112 112 110 105
166 165 177 176 173 175 184 176 169 130 166 171 186 170 104 195 164 175 163 146 169 174 163 188 167 201 187 232 204 231 286 338 81 86 120 133 135 137 136 132 126 124 125 122 118 116 117 114 114 115 114 111 106 92
167 169 177 171 171 179 166 166 157 135 165 180 142 123 55 27 132 132 167 159 190 163 231 216 206 133 117 214 223 272 358 58 120 120 124 140 143 142 138 136 131 127 124 122 119 118 121 121 110 90 78 97 79 338
169 174 173 170 172 165 167 152 137 142 135 153 188 131 129 158 149 155 178 179 152 231 243 300 148 200 219 222 137 127 121 119 126 130 130 132 133 134 133 134 130 129 130 132 136 130 125 104 107 89 157 189 215 281
172 165 169 178 175 145 128 152 146 117 90 118 110 123 133 129 157 168 191 191 213 244 256 245 243 244 91 70 117 128 143 143 138 132 129 132 134 137 138 139 137 138 141 138 133 137 166 187 168 223 250 259 270 269
173 166 174 167 159 126 113 110 116 117 147 142 129 149 148 135 149 151 142 167 195 218 215 244 25 72 68 120 134 145 146 146 143 138 138 141 144 141 145 141 148 151 146 158 166 155 155 184 311 296 250 256 261 275
154 155 160 153 147 91 100 125 113 114 138 155 151 159 136 150 159 168 168 186 204 237 163 109 128 134 124 122 131 137 140 144 151 154 153 149 151 152 151 154 157 161 173 176 181 223 205 249 265 280 290 282 285 278
140 142 142 155 111 96 86 73 123 127 127 137 157 168 150 183 182 180 200 198 201 140 131 148 147 137 129 126 127 135 142 135 130 135 144 145 148 155 161 163 164 174 178 193 224 237 242 260 268 290 284 287 304 288
136 145 140 92 90 77 111 120 103 147 142 155 161 156 170 183 188 175 216 215 135 161 142 143 135 138 137 131 131 128 130 132 134 138 138 143 145 154 160 161 175 177 194 229 216 229 245 260 300 276 284 301 288 285
139 131 92 82 82 111 142 159 153 137 133 179 177 184 186 183 172 215 232 171 137 157 155 148 143 134 134 135 135 136 137 142 140 141 142 141 142 147 154 162 167 175 181 202 216 235 261 269 284 295 283 282 282 287
149 49 88 96 121 133 154 156 172 176 173 185 169 176 172 178 204 223 226 150 172 168 160 157 156 156 154 150 149 151 143 148 148 145 142 154 158 154 156 159 169 206 237 201 273 266 279 277 278 279 274 277 278 278
100 52 360 141 149 167 164 162 182 182 151 174 183 139 174 197 222 226 130 153 168 168 167 165 161 157 157 162 157 152 148 150 151 148 147 150 156 171 186 188 207 277 272 255 261 274 274 274 279 276 279 287 295 294
157 162 142 140 129 142 136 134 149 174 184 184 172 180 184 216 209 95 135 117 161 168 164 165 164 163 160 155 163 161 163 158 162 173 181 187 195 187 168 184 214 244 277 282 286 284 274 278 284 288 289 293 296 295
106 168 179 156 137 166 165 176 185 188 165 169 171 189 212 303 73 123 137 165 150 166 159 154 145 155 156 158 164 165 167 169 171 175 180 198 220 235 250 255 258 274 290 295 297 297 291 291 293 299 298 296 293 298
125 137 139 125 137 143 167 208 172 136 135 195 212 162 139 94 137 131 145 161 169 163 161 162 160 160 157 159 162 163 165 164 161 157 148 155 214 245 259 274 290 299 305 313 309 306 310 307 307 305 305 305 301 304
147 153 129 132 170 173 134 137 170 169 151 142 123 116 115 119 157 150 151 153 153 161 167 169 167 165 167 170 169 171 176 175 165 159 156 158 193 264 267 281 298 310 315 315 314 318 321 323 323 323 322 317 313 303
147 148 124 136 134 121 151 149 136 132 133 145 129 168 139 143 139 158 157 168 173 173 166 163 165 167 171 172 176 181 178 180 187 201 213 224 245 256 271 292 311 319 322 325 325 323 322 324 321 318 318 315 314 315
153 168 146 147 140 156 149 175 171 180 171 176 161 158 152 157 151 165 175 163 162 160 167 167 166 160 174 183 182 183 189 190 191 190 193 201 197 192 224 309 323 331 332 328 326 326 327 326 324 321 320 319 318 318
136 145 140 134 147 175 174 172 185 180 199 198 189 185 180 168 146 184 176 171 161 177 166 173 176 174 175 177 178 181 178 174 174 174 169 157 148 140 46 356 343 336 333 334 335 334 332 330 327 325 324 322 322 322
Wind_Speed_850mb
37 37 47 38 30 24 32 33 36 40 41 34 29 25 23 22 19 16 6 11 5 6 8 8 10 10 8 9 9 18 14 8 10 9 8 8 7 5 8 7 14 13 8 8 9 5 5 46 10 11 14 10 20 22
42 43 42 41 35 27 26 40 35 45 37 32 27 27 23 21 20 20 7 11 12 10 11 9 15 21 21 20 20 13 12 10 7 8 10 8 10 10 17 5 8 5 9 6 13 9 23 31 24 20 19 20 21 19
44 46 46 47 40 32 32 43 43 40 30 29 31 28 24 23 21 21 7 16 10 11 21 18 12 9 18 21 22 17 13 3 8 7 12 7 10 13 12 8 8 5 29 7 6 14 20 25 22 23 22 23 21 22
36 42 47 47 42 34 38 38 53 49 35 32 33 28 25 26 25 23 21 16 13 7 7 1 10 11 11 17 22 32 32 25 27 24 16 8 10 16 10 14 9 12 16 15 9 9 11 24 22 18 21 25 28 27
39 43 51 56 44 32 36 44 49 43 38 31 26 23 24 27 26 26 27 26 21 16 9 13 11 21 12 12 14 20 24 22 23 9 6 9 13 12 10 8 10 15 8 9 7 15 12 15 17 15 22 25 24 26
38 37 47 67 53 36 38 45 40 35 39 32 26 25 24 27 27 22 13 32 39 30 9 6 6 15 20 16 19 22 17 13 8 7 10 12 20 11 9 4 11 16 15 14 5 16 24 19 21 18 22 23 23 26
40 41 41 55 44 43 39 48 38 31 30 32 26 24 24 30 33 31 7 5 3 43 7 8 9 11 21 17 17 15 15 11 16 10 15 19 23 8 6 5 12 17 16 8 13 12 16 15 11 17 19 21 23 24
45 47 43 48 54 47 39 46 44 33 32 28 24 24 27 26 32 38 50 36 30 30 11 6 6 7 16 18 15 13 13 16 14 13 11 13 17 8 2 10 8 9 12 16 15 13 19 16 14 14 13 13 16 17
46 54 49 49 51 47 44 44 39 32 26 22 25 23 26 29 22 26 32 28 37 20 8 9 7 3 11 13 8 14 13 7 11 7 7 8 5 4 7 12 10 8 5 7 11 14 12 11 10 11 10 11 13 15
48 52 51 49 46 48 52 49 39 32 25 28 31 17 13 17 25 19 12 16 13 13 10 8 18 4 12 14 10 6 11 6 6 10 7 5 1 15 10 11 8 8 6 3 2 2 5 5 6 8 10 12 13 14
49 56 58 47 42 44 52 46 41 33 34 36 19 7 20 30 13 13 9 13 15 7 15 17 24 11 15 9 9 13 5 5 5 8 7 7 7 10 12 10 8 9 9 9 6 7 7 7 6 7 11 15 16 16
53 54 54 51 45 49 46 46 41 45 28 27 20 36 28 8 6 7 9 6 10 8 13 17 18 24 10 11 9 8 6 6 9 12 6 5 7 19 15 11 8 8 8 10 11 10 12 12 10 12 13 14 16 17
51 47 50 50 50 51 48 43 34 41 30 41 12 10 10 9 10 9 14 8 7 11 12 15 9 14 8 12 7 5 7 9 10 6 2 7 18 15 14 12 10 9 10 11 13 14 14 16 16 16 17 17 16 17
51 48 49 43 48 45 41 42 40 41 25 7 11 12 9 10 10 8 7 5 8 9 20 26 14 10 7 8 4 9 5 5 6 6 6 9 19 17 12 10 10 12 14 16 17 18 19 20 21 20 19 18 15 14
51 54 47 45 42 40 40 47 40 51 12 11 10 9 13 3 5 5 6 8 8 11 19 11 7 9 7 6 5 6 7 6 3 7 6 24 23 16 12 13 15 17 18 20 20 22 24 23 21 20 18 15 12 9
59 49 44 45 45 43 39 52 40 12 5 5 3 4 3 8 8 10 12 7 7 7 10 5 4 6 7 4 6 7 6 3 6 8 22 23 21 18 19 19 21 22 22 21 22 21 21 19 16 14 12 9 8 7
55 33 50 49 48 44 47 59 15 6 6 4 3 2 5 6 7 9 11 10 6 6 4 6 6 2 5 4 4 2 4 7 17 22 20 21 21 23 25 26 25 24 23 22 20 17 15 14 13 10 6 4 3 1
42 36 54 57 55 44 42 15 6 6 5 5 5 8 3 6 7 8 8 5 4 3 3 2 1 6 5 4 5 7 12 18 21 20 20 22 24 26 25 26 25 23 21 19 16 15 12 10 5 1 3 3 2 3
42 46 64 63 54 33 11 7 3 5 4 5 10 8 4 6 6 7 6 10 4 4 4 4 4 3 3 6 10 19 26 25 26 23 23 24 25 26 27 25 24 21 18 16 13 7 5 7 4 3 5 7 9 10
50 52 63 59 42 8 9 5 7 6 6 9 9 10 6 6 7 5 5 5 6 4 5 3 4 5 4 8 13 24 24 27 29 31 27 24 24 27 25 23 18 18 15 11 8 7 2 1 2 3 6 9 9 12
75 88 82 59 18 8 8 9 7 6 11 7 12 11 5 8 6 6 6 3 6 3 4 3 8 10 15 19 23 24 27 25 23 24 30 32 28 24 22 18 17 13 10 9 8 4 4 4 6 6 5 6 7 7
82 71 30 19 8 7 9 7 11 14 7 11 14 9 6 6 7 7 4 6 3 4 4 9 14 20 24 23 25 24 28 26 25 30 29 32 27 23 19 16 13 10 8 6 5 6 6 6 6 6 5 9 8 8
46 36 13 7 10 7 8 8 6 7 5 13 11 7 5 6 5 5 6 5 4 6 12 19 22 22 26 26 27 27 26 28 28 28 28 23 21 19 16 13 11 9 6 6 5 5 7 11 10 7 8 9 9 11
36 10 6 6 8 8 9 6 7 8 8 7 7 6 6 7 8 8 6 8 11 17 20 26 27 30 27 26 25 25 25 23 26 26 21 20 17 14 12 9 8 7 7 7 5 5 6 7 14 9 12 11 13 14
7 4 4 6 6 9 8 10 8 7 7 7 8 5 7 10 7 6 5 12 21 24 28 28 26 24 28 28 26 23 27 22 22 22 19 16 16 14 10 9 7 6 6 3 5 7 10 13 12 12 13 15 16 17
5 3 1 6 8 7 9 8 11 9 6 8 7 7 9 6 6 6 4 13 22 28 30 30 30 27 26 25 27 26 23 22 21 19 16 14 11 10 9 9 5 7 11 12 8 10 12 15 14 15 13 15 22 23
8 6 4 5 4 8 7 4 9 6 10 9 8 11 9 7 8 7 6 10 17 24 27 30 26 26 30 31 34 29 29 28 24 20 17 16 13 13 9 7 6 19 18 15 16 14 11 11 11 11 11 11 12 16
5 8 9 12 7 4 5 6 9 9 6 5 10 9 6 3 4 7 6 20 25 34 39 35 27 31 30 28 29 29 27 22 15 12 10 9 10 10 11 11 11 12 15 15 15 13 13 12 12 12 12 14 17 18
5 8 11 6 5 4 4 3 5 4 3 6 5 5 5 3 5 8 11 23 28 28 33 35 34 32 32 32 30 27 22 18 14 14 10 7 3 7 8 8 10 11 12 12 11 11 13 15 16 17 18 19 20 23
7 10 6 5 6 6 5 3 6 5 5 6 7 7 7 6 3 14 17 26 24 24 27 30 32 31 32 30 28 25 20 18 18 12 8 7 9 7 7 7 8 7 7 8 10 14 14 16 18 17 18 20 17 19
10 9 7 5 4 4 6 9 9 10 7 5 6 4 10 9 8 23 27 28 32 32 32 31 30 29 29 26 23 21 19 16 13 10 9 7 6 5 4 4 5 6 8 9 11 13 16 18 17 19 21 23 26 28
7 7 8 6 7 10 11 10 9 8 8 10 7 9 10 11 10 10 28 28 28 28 29 29 30 28 30 25 22 19 15 13 13 10 7 5 3 2 1 2 4 6 9 12 14 16 17 19 20 22 25 26 30 33
8 8 8 10 11 12 11 9 9 7 9 11 10 16 11 7 8 12 30 38 31 28 33 33 29 25 24 22 18 15 14 14 12 9 7 6 4 2 1 2 6 9 11 13 15 17 19 21 24 27 30 32 35 39
Wind_Direction_850mb
206 201 187 187 196 204 200 192 197 200 198 198 193 204 209 207 194 181 189 194 191 242 269 246 253 252 242 246 295 330 315 19 303 291 310 5 261 313 281 75 166 197 220 219 238 262 143 355 48 8 342 15 22 31
207 209 207 198 198 193 197 196 198 195 201 193 200 196 185 193 187 177 212 193 213 251 287 282 258 258 257 266 297 303 304 306 324 315 354 311 285 343 323 152 29 74 12 311 35 48 47 34 50 24 21 46 44 69
213 208 202 197 198 201 197 196 197 202 198 200 196 198 199 206 201 197 215 185 198 284 298 255 259 265 253 251 236 259 244 20 350 325 324 298 297 344 347 8 34 68 17 32 307 42 52 41 41 44 49 65 70 84
206 202 205 203 196 200 206 205 198 204 193 200 201 202 213 214 217 212 219 216 215 277 284 305 267 275 262 237 234 231 257 296 301 294 308 282 294 336 335 321 9 351 336 337 107 107 97 61 47 57 71 78 82 85
208 217 215 193 191 191 190 190 192 189 189 193 195 207 208 204 206 221 229 224 222 252 320 305 291 286 246 247 232 234 244 265 285 300 269 277 301 335 317 282 47 6 3 349 22 0 71 53 53 67 76 74 78 84
212 220 208 188 184 179 185 191 192 196 196 198 204 205 207 207 207 221 242 249 235 219 258 272 295 256 248 234 230 229 235 243 242 245 257 268 282 313 309 358 52 30 21 2 41 76 109 104 81 69 75 75 84 87
206 206 192 180 181 189 189 196 199 196 199 200 202 208 214 199 205 206 220 129 173 210 220 258 254 208 223 226 228 209 203 215 234 252 248 260 283 270 277 0 59 45 36 66 117 69 98 29 97 78 77 80 82 81
197 192 188 192 188 186 189 191 193 198 199 200 208 200 197 213 226 234 235 248 268 204 193 247 254 241 194 206 213 194 184 211 228 247 260 266 283 253 262 112 84 61 49 51 57 76 94 99 79 67 69 82 84 82
192 187 183 182 188 194 195 189 189 192 198 192 176 188 212 222 229 252 259 249 240 181 217 218 238 219 168 221 180 192 205 234 240 232 238 264 237 238 76 118 87 46 61 77 66 75 76 73 65 59 64 72 88 89
186 184 181 189 201 203 200 188 186 188 183 182 191 206 199 192 199 185 125 161 185 212 235 248 240 225 184 183 182 215 203 242 234 210 178 231 155 104 109 102 93 58 61 93 217 67 46 51 49 50 61 73 94 102
183 178 182 182 174 169 171 177 179 175 178 193 188 158 142 135 138 170 165 191 191 223 213 226 214 194 202 189 204 210 209 243 258 168 207 210 158 126 143 119 90 70 60 54 58 51 44 84 109 104 89 90 101 114
178 179 182 182 182 180 177 176 178 184 185 181 159 135 144 177 185 182 190 199 227 231 165 195 204 212 185 217 235 197 232 202 246 147 211 202 102 131 136 128 99 72 66 68 70 77 81 91 100 108 104 104 107 106
180 181 179 176 180 176 176 182 187 183 141 131 127 151 175 162 209 218 184 205 204 171 179 160 166 187 202 217 243 256 219 238 136 215 161 53 129 141 139 133 112 98 95 93 91 98 103 107 124 112 106 104 107 111
181 177 174 180 179 178 182 187 191 190 166 180 160 149 220 177 230 199 253 147 78 117 162 173 164 186 162 179 239 248 197 262 232 229 106 129 146 137 124 120 130 110 107 107 105 108 109 112 114 113 110 109 109 108
172 169 173 177 178 180 184 184 171 180 165 205 194 209 203 96 46 81 108 119 118 168 164 173 177 189 173 221 212 280 222 226 320 54 87 125 131 140 131 126 126 123 116 109 109 111 110 111 111 111 112 112 110 105
166 165 177 176 173 175 184 176 169 130 166 171 186 170 104 195 164 175 163 146 169 174 163 188 167 201 187 232 204 231 286 338 81 86 120 133 135 137 136 132 126 124 125 122 118 116 117 114 114 115 114 111 106 92
167 169 177 171 171 179 166 166 157 135 165 180 142 123 55 27 132 132 167 159 190 163 231 216 206 133 117 214 223 272 358 58 120 120 124 140 143 142 138 136 131 127 124 122 119 118 121 121 110 90 78 97 79 338
169 174 173 170 172 165 167 152 137 142 135 153 188 131 129 158 149 155 178 179 152 231 243 300 148 200 219 222 137 127 121 119 126 130 130 132 133 134 133 134 130 129 130 132 136 130 125 104 107 89 157 189 215 281
172 165 169 178 175 145 128 152 146 117 90 118 110 123 133 129 157 168 191 191 213 244 256 245 243 244 91 70 117 128 143 143 138 132 129 132 134 137 138 139 137 138 141 138 133 137 166 187 168 223 250 259 270 269
173 166 174 167 159 126 113 110 116 117 147 142 129 149 148 135 149 151 142 167 195 218 215 244 25 72 68 120 134 145 146 146 143 138 138 141 144 141 145 141 148 151 146 158 166 155 155 184 311 296 250 256 261 275
154 155 160 153 147 91 100 125 113 114 138 155 151 159 136 150 159 168 168 186 204 237 163 109 128 134 124 122 131 137 140 144 151 154 153 149 151 152 151 154 157 161 173 176 181 223 205 249 265 280 290 282 285 278
140 142 142 155 111 96 86 73 123 127 127 137 157 168 150 183 182 180 200 198 201 140 131 148 147 137 129 126 127 135 142 135 130 135 144 145 148 155 161 163 164 174 178 193 224 237 242 260 268 290 284 287 304 288
136 145 140 92 90 77 111 120 103 147 142 155 161 156 170 183 188 175 216 215 135 161 142 143 135 138 137 131 131 128 130 132 134 138 138 143 145 154 160 161 175 177 194 229 216 229 245 260 300 276 284 301 288 285
139 131 92 82 82 111 142 159 153 137 133 179 177 184 186 183 172 215 232 171 137 157 155 148 143 134 134 135 135 136 137 142 140 141 142 141 142 147 154 162 167 175 181 202 216 235 261 269 284 295 283 282 282 287
149 49 88 96 121 133 154 156 172 176 173 185 169 176 172 178 204 223 226 150 172 168 160 157 156 156 154 150 149 151 143 148 148 145 142 154 158 154 156 159 169 206 237 201 273 266 279 277 278 279 274 277 278 278
100 52 360 141 149 167 164 162 182 182 151 174 183 139 174 197 222 226 130 153 168 168 167 165 161 157 157 162 157 152 148 150 151 148 147 150 156 171 186 188 207 277 272 255 261 274 274 274 279 276 279 287 295 294
157 162 142 140 129 142 136 134 149 174 184 184 172 180 184 216 209 95 135 117 161 168 164 165 164 163 160 155 163 161 163 158 162 173 181 187 195 187 168 184 214 244 277 282 286 284 274 278 284 288 289 293 296 295
106 168 179 156 137 166 165 176 185 188 165 169 171 189 212 303 73 123 137 165 150 166 159 154 145 155 156 158 164 165 167 169 171 175 180 198 220 235 250 255 258 274 290 295 297 297 291 291 293 299 298 296 293 298
125 137 139 125 137 143 167 208 172 136 135 195 212 162 139 94 137 131 145 161 169 163 161 162 160 160 157 159 162 163 165 164 161 157 148 155 214 245 259 274 290 299 305 313 309 306 310 307 307 305 305 305 301 304
147 153 129 132 170 173 134 137 170 169 151 142 123 116 115 119 157 150 151 153 153 161 167 169 167 165 167 170 169 171 176 175 165 159 156 158 193 264 267 281 298 310 315 315 314 318 321 323 323 323 322 317 313 303
147 148 124 136 134 121 151 149 136 132 133 145 129 168 139 143 139 158 157 168 173 173 166 163 165 167 171 172 176 181 178 180 187 201 213 224 245 256 271 292 311 319 322 325 325 323 322 324 321 318 318 315 314 315
153 168 146 147 140 156 149 175 171 180 171 176 161 158 152 157 151 165 175 163 162 160 167 167 166 160 174 183 182 183 189 190 191 190 193 201 197 192 224 309 323 331 332 328 326 326 327 326 324 321 320 319 318 318
136 145 140 134 147 175 174 172 185 180 199 198 189 185 180 168 146 184 176 171 161 177 166 173 176 174 175 177 178 181 178 174 174 174 169 157 148 140 46 356 343 336 333 334 335 334 332 330 327 325 324 322 322 322